Location: Cuzcurrita-R�o Tir�n
(42.5415°N, 2.9642°W)
Time: 15:37:49
(UTC+00:00)

USA 186 - Pass Details

Date: 27 February 2020
Orbit: 266 x 454 km, 96.9° (Epoch: 27 March)

Event Time Altitude Azimuth Distance (km) Brightness Sun altitude
Exits shadow 19:05:42 11° 31° (NNE) 1,247 3.8 -13.2°
Drops below altitude 10° 19:06:01 10° 27° (NNE) 1,335 4.0 -13.2°
Sets 19:08:25 0° 5° (N) 2,215 5.4 -13.7°
